Apple Cup Yearling Classic - Loft Setrtling 5-11-18

Station: loft Inventory - T Race

Distance: 10 Miles    

Release: 11-May-2018 09:00

Weather Release:    Arrival: Cool and Overcast

Wind at Release:     Wind at Arrival:

Temp at Release: °    Temp at Arrival: °

Lofts: 140

Birds: 437

Clocked: 433

732 Birds In The Loft! The rest will be settled soon!
Drops Pos Breeder Pigeon Name Color Sex Ent Arrival Speed To Win Eligible
102 J H C - AL 6530-AU18-ARPU RC H 1 11:29:43.32 117.551 00:01:02 Yes
103 Kwan Loft - CA 0871-AU18-HP PIED H 2 11:29:43.41 117.550 00:01:02 Yes
104 Floridian Loft - FL 2582-AU18-SCHE DEN 82 BB H 8 11:29:44.37 117.537 00:01:03 Yes
105 Dj Loft Of Utah - UT 19415-AU18-ARPU Neto Figo/Jetta BC H 4 11:29:44.50 117.536 00:01:03 Yes
106 D F Chavez - TX 3424-AU18-JEDS BC H 1 11:29:45.30 117.525 00:01:04 Yes
107 Aimhigh - CA 0124-AU18-FMT BC H 1 11:29:45.76 117.519 00:01:04 Yes
108 Dj Loft Of Utah - UT 19420-AU18-ARPU Taça De Maçã x 4 PIED H 5 11:29:46.35 117.512 00:01:05 Yes
109 Barry Venn - WY 18081-AU18-VENN DC H 2 11:29:47.04 117.503 00:01:05 Yes
110 Miami Syndicate Loft - FL 4028-AU18-SCHE BC H 5 11:29:47.13 117.501 00:01:06 Yes
112 Marengo Creek Farms - AL 3017-AU18-MCF BB H 2 11:29:48.14 117.488 00:01:07 Yes
113 Miami Syndicate Loft - FL 4021-AU18-SCHE BB H 6 11:29:48.24 117.487 00:01:07 Yes
114 Ken & Roly - NM 2717-AU18-VITA BC H 2 11:29:48.70 117.481 00:01:07 Yes
115 Floridian Loft - FL 2561-AU18-SCHE DEN 61 BC H 9 11:29:49.07 117.476 00:01:08 Yes
116 Kwan Loft - CA 0803-AU18-KWAN BC H 3 11:29:49.11 117.475 00:01:08 Yes
117 American Lofts - OR 2572-AU18-CORP BB H 1 11:29:50.54 117.457 00:01:09 Yes
118 Christopher Loft - UT 8435-AU18-GS BB H 4 11:29:50.87 117.452 00:01:09 Yes
119 Rampage Racing - TX 4602-AU18-VITA BB H 2 11:29:51.00 117.451 00:01:09 Yes
120 Floridian Loft - FL 2571-AU18-SCHE DEN 71 BC H 10 11:29:51.83 117.440 00:01:10 Yes
121 Bird Dog Syndicate 2 - CA 0110-AU18-BURG BBWF H 1 11:29:51.97 117.438 00:01:10 Yes
122 Life Loft - WA 2053-AU18-CBF Bullet Proof BC H 2 11:29:52.31 117.434 00:01:11 Yes
123 Red Ass Ranch - TX 0308-AU18-RAR BBWF H 4 11:29:52.98 117.425 00:01:11 Yes
124 Drama Queen Loft - TX 1080-AU18-GCL BC H 2 11:29:53.30 117.421 00:01:12 Yes
125 Miami Syndicate Loft - FL 0173-AU18-NAPL BB H 7 11:29:53.52 117.418 00:01:12 Yes
126 Miami Syndicate Loft - FL 4025-AU18-SCHE BB H 8 11:29:53.81 117.414 00:01:12 Yes
127 Ken & Roly - NM 2686-AU18-VITA BC H 3 11:29:54.18 117.409 00:01:13 Yes
128 House Of Paine - CA 1813-AU18-GSF BC H 1 11:29:54.96 117.399 00:01:13 Yes
129 K/N Loft - HI 0048-AU18-FIA BB H 2 11:29:55.09 117.397 00:01:14 Yes
130 Floridian Loft - FL 2505-AU18-SCHE DEN 05 BC H 11 11:29:55.74 117.389 00:01:14 Yes
131 Dj Loft Of Utah - UT 19418-AU18-ARPU 720/Rixey GRIZ H 6 11:29:55.91 117.387 00:01:14 Yes
132 Friends Of Fatima - BC 57703-AU18-ARPU BB H 1 11:29:56.70 117.376 00:01:15 Yes
133 Ken & Roly - NM 2685-AU18-VITA BC H 4 11:29:57.31 117.368 00:01:16 Yes
134 A P C Loft - TX 18105-AU18-APC BC H 5 11:29:57.49 117.366 00:01:16 Yes
135 Miami Syndicate Loft - FL 0171-AU18-NAPL BC H 9 11:29:58.12 117.358 00:01:17 Yes
136 Van Den Bossche Brothers - ME 8886-IF18-CMP Dreamer BC H 1 11:29:58.17 117.357 00:01:17 Yes
137 Miami Syndicate Loft - FL 0163-AU18-NAPL BB H 10 11:29:58.96 117.347 00:01:17 Yes
138 Gloriosos Loft - TX 2123-AU18-DALL BCWF H 2 11:29:59.61 117.338 00:01:18 Yes
139 Marian Taloi - OR 29513-AU18-AA PIED H 1 11:29:59.93 117.334 00:01:18 Yes
140 Red Ass Ranch - TX 0303-AU18-RAR BB H 5 11:30:01.08 117.319 00:01:20 Yes
141 Lins Loft - WA 0008-AU18-LINS BBWF H 1 11:30:01.62 117.312 00:01:20 Yes
142 Miami Syndicate Loft - FL 0162-AU18-NAPL PIED H 11 11:30:02.04 117.307 00:01:20 Yes
143 Dj Loft Of Utah - UT 19402-AU18-ARPU Altas Esperanças x1 BC H 7 11:30:02.41 117.302 00:01:21 Yes
144 Life Loft - WA 2052-AU18-CBF Toughest SLAT H 3 11:30:02.77 117.297 00:01:21 Yes
145 David Clausing - FL 0113-IF18-CLAU BC H 5 11:30:03.46 117.288 00:01:22 Yes
146 Marian Taloi - OR 29519-AU18-AA BB H 2 11:30:03.65 117.286 00:01:22 Yes
147 Jing X Zheng - WA 18326-AU18-ARPU BCWF H 2 11:30:03.97 117.282 00:01:22 Yes
148 Sooner Challenge - OK 8828-AU18-TRPC 7955 X Kastle BB H 1 11:30:04.48 117.275 00:01:23 Yes
149 Racing Pigeon Mall - WA 0806-AU18-RPM BB H 1 11:30:04.58 117.274 00:01:23 Yes
150 Drama Queen Loft - TX 1081-AU18-GCL BBWF H 3 11:30:04.61 117.273 00:01:23 Yes
151 K/N Loft - HI 0049-AU18-FIA BB H 3 11:30:05.73 117.259 00:01:24 Yes
152 Mc Cormick Loft - CA 0204-AU18-HANG BB H 1 11:30:05.76 117.258 00:01:24 Yes
153 A P C Loft - TX 18094-AU18-APC BGRZ H 6 11:30:06.46 117.249 00:01:25 Yes
154 Gloriosos Loft - TX 2108-AU18-DALL DC H 3 11:30:06.78 117.245 00:01:25 Yes
155 Miami Syndicate Loft - FL 0157-AU18-NAPL BB H 12 11:30:07.15 117.240 00:01:26 Yes
156 Valdes & Rudy Loft - FL 3828-AU18-SCHE Omarito BB H 1 11:30:07.37 117.237 00:01:26 Yes
157 Thunder Birds/Rodriguez Breeding Loft - TX 18458-AU18-WIN 791-631 BB H 2 11:30:07.79 117.232 00:01:26 Yes
158 Siguaraya & El Rey De Los Cielos - FL 29101-AU18-ARPU Kill Bill BC H 1 11:30:07.88 117.231 00:01:26 Yes
159 Valdes & Rudy Loft - FL 3801-AU18-SCHE El Yann BB C 2 11:30:08.67 117.220 00:01:27 Yes
160 G & L Loft - OR 0702-AU18-FHI 702 H 1 11:30:08.99 117.216 00:01:27 Yes
161 Royers Loft - UT 0132-AU18-SLI BC H 1 11:30:09.08 117.215 00:01:28 Yes
162 David Clausing - FL 0114-IF18-CLAU BC H 6 11:30:09.72 117.207 00:01:28 Yes
163 Quejado/Fernandez/Mutuc - CA 0889-AU18-TCH BB H 1 11:30:09.74 117.206 00:01:28 Yes
164 Siguaraya & El Rey De Los Cielos - FL 29200-AU18-ARPU California Quail BC H 2 11:30:10.65 117.195 00:01:29 Yes
165 Horse Heaven Hills - OR 0817-AU18-HHH BBWF H 2 11:30:10.82 117.192 00:01:29 Yes
165 D F Chavez - TX 1702-AU18-FOYS BBWF H 2 11:30:10.87 117.192 00:01:29 Yes
167 Horse Heaven Hills - OR 0812-AU18-HHH BB H 3 11:30:11.98 117.177 00:01:30 Yes
168 Alan Porter - WI 0430-AU18-RRR DCWF H 4 11:30:12.49 117.171 00:01:31 Yes
169 Marian Taloi - OR 29514-AU18-AA BC H 3 11:30:13.41 117.159 00:01:32 Yes
170 John Partridge - CA 1015-AU18-PASO BB H 4 11:30:14.74 117.141 00:01:33 Yes
170 Horse Heaven Hills - OR 0803-AU18-HHH BB H 4 11:30:14.79 117.141 00:01:33 Yes
172 Barry Venn - WY 18083-AU18-VENN DC H 3 11:30:16.67 117.116 00:01:35 Yes
173 Floridian Loft - FL 2552-AU18-SCHE DEN 52 BC H 12 11:30:16.77 117.115 00:01:35 Yes
174 Whiskey Hollow Loft - TX 0327-AU18-WACO Maker"s Mark BC H 1 11:30:17.73 117.103 00:01:36 Yes
175 Charlie Barbiere - NJ 2302-IF18-BSC BC H 2 11:30:18.19 117.097 00:01:37 Yes
176 Hawaii Syndicate - HI 0183-AU18-FIA BB H 1 11:30:18.56 117.092 00:01:37 Yes
177 Kim Wong - VT 17432-AU18-ARPU BBWF H 1 11:30:19.34 117.082 00:01:38 Yes
178 Kwan Loft - CA 0861-AU18-HP GRIZ H 4 11:30:20.86 117.062 00:01:39 Yes
179 American Lofts - OR 2547-AU18-CORP OPAL H 2 11:30:22.37 117.042 00:01:41 Yes
180 Igor & Sons/Evergreen Loft - OR 0629-AU18-PNW BB H 1 11:30:24.36 117.017 00:01:43 Yes
181 Marian Taloi - OR 29504-AU18-AA BC H 4 11:30:24.87 117.010 00:01:43 Yes
182 Alan Porter - WI 0425-AU18-RRR BB H 5 11:30:24.91 117.009 00:01:43 Yes
183 Blaco & Williamson - CA 3881-AU18-COM BB H 2 11:30:25.55 117.001 00:01:44 Yes
184 American Chinese Pigeon Association - VA 2117-AU18-ARPU 中美信鸽协会 117 BB H 1 11:30:26.75 116.986 00:01:45 Yes
185 Miami Syndicate Loft - FL 1011-AU18-FMI BC H 13 11:30:27.90 116.971 00:01:46 Yes
186 3 K\'s Loft - CA 2092-AU18-SFR BC H 2 11:30:30.34 116.939 00:01:49 Yes
187 Ken & Roly - NM 2713-AU18-VITA BC H 5 11:30:30.46 116.938 00:01:49 Yes
188 Van Den Bossche Loft - ME 8883-IF18-CMP Little Francis BB C 2 11:30:32.77 116.908 00:01:51 Yes
189 Sarrett Racing Pigeons - TX 8054-AU18-PPH BBWF H 2 11:30:34.39 116.887 00:01:53 Yes
190 A B C Loft2 - NY 51602-AU18-ARPU PIED H 4 11:30:36.95 116.854 00:01:55 Yes
191 Aimhigh - CA 0117-AU18-FMT BB H 2 11:30:37.28 116.849 00:01:56 Yes
191 Shang N Dennis Yoh - CA 8843-AU18-JEDS BC H 1 11:30:37.33 116.849 00:01:56 Yes
193 S & M Loft - ID 11242-AU18-FOYS RDWF H 2 11:30:38.25 116.837 00:01:57 Yes
194 Blue Bucket Stampede - OR 2603-AU18-CORP BB H 2 11:30:41.64 116.793 00:02:00 Yes
195 A B C Loft2 - NY 51708-AU18-ARPU BB H 5 11:30:42.07 116.787 00:02:01 Yes
196 Thunder Birds/Rodriguez Breeding Loft - TX 18459-AU18-WIN 109-251 BB H 3 11:30:42.90 116.777 00:02:01 Yes
197 A B C Loft2 - NY 51601-AU18-ARPU BB H 6 11:30:43.49 116.769 00:02:02 Yes
198 Siguaraya & El Rey De Los Cielos - FL 29103-AU18-ARPU Bad Bunny BB H 3 11:30:44.23 116.760 00:02:03 Yes
199 Irishsyndicatelofts - AZ 0098-AU18-IRSH BCWF H 2 11:30:44.32 116.758 00:02:03 Yes
200 Callejas Loft - IL 1832-AU18-CALL BB H 2 11:30:44.88 116.751 00:02:03 Yes
201 Miller's Loft - HI 19351-AU18-JEDS BB H 1 11:30:45.20 116.747 00:02:04 Yes
202 Marengo Creek Farms - AL 3014-AU18-MCF BB H 3 11:30:45.79 116.739 00:02:04 Yes

There are 968 bird records

Note: These Race Results are unofficial and subject to change until verified by the Race Committee and declared final.